| time (UTC) | temp F | wind direction | speed knots | gust knots | rain 1hr in | rain 24hr in | rain mn in | humidity % | barometer mb |
| 20260504050004 | 64 | 157 | 9.6 | 22.6 | 0.00 | 0.09 | 0.00 | 60 | 1008.9 |
| 20260504045404 | 64 | 157 | 9.6 | 24.3 | 0.00 | 0.09 | 0.00 | 59 | 1008.8 |
| 20260504044525 | 64 | 157 | 8.7 | 18.2 | 0.00 | 0.09 | 0.00 | 59 | 1008.9 |
| 20260504043604 | 64 | 157 | 8.7 | 19.1 | 0.00 | 0.09 | 0.00 | 59 | 1008.9 |
| 20260504042704 | 64 | 157 | 8.7 | 21.7 | 0.00 | 0.09 | 0.00 | 60 | 1008.9 |
| 20260504041804 | 63 | 157 | 7.8 | 20.9 | 0.00 | 0.09 | 0.00 | 62 | 1008.9 |
| 20260504040904 | 62 | 157 | 9.6 | 20.9 | 0.00 | 0.09 | 0.00 | 62 | 1009.0 |
| 20260504040004 | 63 | 157 | 9.6 | 21.7 | 0.00 | 0.10 | 0.00 | 59 | 1009.1 |
| 20260504035405 | 64 | 157 | 8.7 | 21.7 | 0.00 | 0.10 | 0.00 | 58 | 1009.1 |
| 20260504034504 | 64 | 157 | 7.0 | 20.9 | 0.00 | 0.10 | 0.00 | 57 | 1009.1 |
| 20260504033604 | 65 | 157 | 7.0 | 17.4 | 0.00 | 0.11 | 0.00 | 59 | 1009.3 |
| 20260504032725 | 64 | 157 | 7.0 | 14.8 | 0.00 | 0.11 | 0.00 | 60 | 1009.3 |
| 20260504031804 | 63 | 157 | 9.6 | 19.1 | 0.00 | 0.12 | 0.00 | 61 | 1009.5 |
| 20260504030904 | 63 | 157 | 7.8 | 22.6 | 0.00 | 0.12 | 0.00 | 59 | 1009.8 |
| 20260504030004 | 63 | 157 | 8.7 | 17.4 | 0.00 | 0.12 | 0.00 | 64 | 1009.7 |
| 20260504025404 | 63 | 157 | 8.7 | 15.6 | 0.00 | 0.12 | 0.00 | 63 | 1009.8 |
| 20260504024504 | 63 | 157 | 8.7 | 15.6 | 0.00 | 0.12 | 0.00 | 62 | 1009.8 |
| 20260504023604 | 63 | 157 | 8.7 | 19.1 | 0.00 | 0.12 | 0.00 | 63 | 1009.7 |
| 20260504022704 | 63 | 157 | 8.7 | 19.1 | 0.00 | 0.12 | 0.00 | 64 | 1009.9 |
| 20260504021804 | 64 | 157 | 8.7 | 18.2 | 0.00 | 0.12 | 0.00 | 62 | 1010.1 |
| 20260504020904 | 63 | 157 | 9.6 | 20.0 | 0.00 | 0.13 | 0.00 | 64 | 1010.1 |
| 20260504015404 | 63 | 157 | 10.4 | 22.6 | 0.00 | 0.17 | 0.00 | 64 | 1010.3 |
| 20260504014504 | 63 | 157 | 9.6 | 21.7 | 0.00 | 0.20 | 0.00 | 64 | 1010.5 |
| 20260504013604 | 63 | 157 | 9.6 | 21.7 | 0.00 | 0.25 | 0.00 | 65 | 1010.5 |
| 20260504012704 | 63 | 157 | 9.6 | 20.0 | 0.00 | 0.31 | 0.00 | 65 | 1010.4 |
| 20260504011825 | 63 | 157 | 8.7 | 23.5 | 0.00 | 0.34 | 0.00 | 66 | 1010.5 |
| 20260504010904 | 64 | 157 | 7.8 | 20.0 | 0.00 | 0.41 | 0.00 | 65 | 1010.6 |
| 20260504010004 | 63 | 157 | 7.8 | 19.1 | 0.00 | 0.45 | 0.00 | 67 | 1010.6 |
| 20260504005404 | 63 | 157 | 7.8 | 18.2 | 0.00 | 0.45 | 0.00 | 67 | 1010.7 |
| 20260504004525 | 62 | 157 | 8.7 | 19.1 | 0.00 | 0.46 | 0.00 | 69 | 1010.8 |
| 20260504003604 | 62 | 157 | 8.7 | 19.1 | 0.00 | 0.50 | 0.00 | 68 | 1010.8 |
| 20260504002704 | 62 | 157 | 8.7 | 21.7 | 0.00 | 0.53 | 0.00 | 69 | 1010.6 |
| 20260504001804 | 61 | 157 | 9.6 | 20.9 | 0.00 | 0.54 | 0.00 | 69 | 1010.7 |
| 20260504000904 | 61 | 157 | 9.6 | 19.1 | 0.00 | 0.54 | 0.00 | 70 | 1010.6 |
| 20260504000004 | 61 | 157 | 9.6 | 19.1 | 0.00 | 0.54 | 0.00 | 69 | 1010.7 |
| 20260503235404 | 60 | 157 | 9.6 | 17.4 | 0.00 | 0.54 | 0.00 | 69 | 1010.9 |
| 20260503234504 | 60 | 157 | 9.6 | 18.2 | 0.00 | 0.54 | 0.00 | 69 | 1010.8 |
| 20260503233604 | 60 | 157 | 7.8 | 18.2 | 0.00 | 0.54 | 0.00 | 69 | 1010.8 |
| 20260503232704 | 60 | 157 | 7.0 | 17.4 | 0.00 | 0.54 | 0.00 | 71 | 1011.1 |
| 20260503231825 | 60 | 157 | 7.0 | 14.8 | 0.00 | 0.54 | 0.00 | 71 | 1011.2 |
| 20260503230904 | 59 | 157 | 7.8 | 16.5 | 0.00 | 0.54 | 0.00 | 72 | 1011.2 |
| 20260503230004 | 59 | 157 | 7.0 | 14.8 | 0.00 | 0.54 | 0.00 | 72 | 1011.3 |
| 20260503225404 | 59 | 157 | 7.0 | 15.6 | 0.00 | 0.54 | 0.00 | 73 | 1011.2 |
| 20260503224504 | 58 | 157 | 6.1 | 13.9 | 0.00 | 0.54 | 0.00 | 73 | 1011.3 |
| 20260503223626 | 58 | 157 | 7.0 | 19.1 | 0.00 | 0.54 | 0.00 | 74 | 1011.4 |
| 20260503222704 | 58 | 157 | 7.0 | 16.5 | 0.00 | 0.54 | 0.00 | 74 | 1011.3 |
| 20260503221804 | 57 | 157 | 7.0 | 15.6 | 0.00 | 0.54 | 0.00 | 76 | 1011.2 |
| 20260503220904 | 57 | 157 | 7.8 | 18.2 | 0.00 | 0.54 | 0.00 | 76 | 1011.2 |
| 20260503220025 | 57 | 157 | 7.0 | 17.4 | 0.00 | 0.54 | 0.00 | 78 | 1011.2 |
| 20260503215404 | 56 | 157 | 7.0 | 14.8 | 0.00 | 0.54 | 0.00 | 78 | 1011.3 |
| 20260503214504 | 56 | 157 | 7.0 | 17.4 | 0.00 | 0.54 | 0.00 | 79 | 1011.5 |
| 20260503213604 | 56 | 157 | 6.1 | 14.8 | 0.00 | 0.54 | 0.00 | 79 | 1011.2 |
| 20260503212725 | 56 | 157 | 7.0 | 16.5 | 0.00 | 0.54 | 0.00 | 79 | 1011.2 |
| 20260503211804 | 56 | 157 | 7.8 | 14.8 | 0.00 | 0.54 | 0.00 | 80 | 1011.3 |
| 20260503210904 | 56 | 157 | 7.8 | 16.5 | 0.00 | 0.55 | 0.00 | 81 | 1011.3 |
| 20260503210005 | 56 | 157 | 7.0 | 16.5 | 0.00 | 0.55 | 0.00 | 81 | 1011.3 |
| 20260503205404 | 56 | 157 | 7.0 | 16.5 | 0.00 | 0.55 | 0.00 | 82 | 1011.3 |
| 20260503204504 | 55 | 157 | 6.1 | 13.0 | 0.00 | 0.55 | 0.00 | 82 | 1011.2 |
| 20260503203604 | 55 | 157 | 5.2 | 16.5 | 0.00 | 0.55 | 0.00 | 82 | 1011.0 |
| 20260503202704 | 55 | 157 | 5.2 | 13.9 | 0.00 | 0.55 | 0.00 | 82 | 1010.9 |
| 20260503201825 | 55 | 157 | 5.2 | 12.2 | 0.00 | 0.55 | 0.00 | 82 | 1010.9 |
| 20260503200904 | 56 | 157 | 6.1 | 12.2 | 0.00 | 0.55 | 0.00 | 83 | 1011.0 |
| 20260503200004 | 56 | 157 | 5.2 | 13.0 | 0.00 | 0.55 | 0.00 | 83 | 1011.1 |
| 20260503195404 | 56 | 157 | 5.2 | 13.0 | 0.00 | 0.55 | 0.00 | 83 | 1011.1 |
| 20260503194504 | 55 | 157 | 6.1 | 13.0 | 0.00 | 0.55 | 0.00 | 84 | 1011.1 |
| 20260503193604 | 55 | 157 | 5.2 | 13.9 | 0.00 | 0.55 | 0.00 | 84 | 1011.2 |
| 20260503192704 | 55 | 157 | 4.3 | 13.9 | 0.00 | 0.55 | 0.00 | 85 | 1011.3 |
| 20260503191804 | 55 | 157 | 4.3 | 12.2 | 0.00 | 0.55 | 0.00 | 85 | 1011.4 |
| 20260503190904 | 55 | 157 | 5.2 | 12.2 | 0.00 | 0.55 | 0.00 | 85 | 1011.5 |
| 20260503190004 | 55 | 157 | 6.1 | 14.8 | 0.00 | 0.55 | 0.00 | 85 | 1011.4 |
| 20260503185404 | 55 | 157 | 6.1 | 14.8 | 0.00 | 0.55 | 0.00 | 85 | 1011.5 |
| 20260503184504 | 56 | 157 | 7.0 | 15.6 | 0.00 | 0.55 | 0.00 | 85 | 1011.6 |
| 20260503183604 | 56 | 157 | 6.1 | 15.6 | 0.00 | 0.55 | 0.00 | 85 | 1011.5 |
| 20260503182704 | 55 | 157 | 5.2 | 12.2 | 0.00 | 0.55 | 0.00 | 85 | 1011.5 |
| 20260503181804 | 55 | 157 | 5.2 | 13.9 | 0.00 | 0.55 | 0.00 | 85 | 1011.8 |
| 20260503180904 | 55 | 157 | 5.2 | 10.4 | 0.00 | 0.55 | 0.00 | 84 | 1011.7 |
| 20260503180004 | 56 | 157 | 5.2 | 10.4 | 0.00 | 0.55 | 0.00 | 85 | 1011.8 |
| 20260503175425 | 56 | 157 | 6.1 | 12.2 | 0.00 | 0.55 | 0.00 | 85 | 1011.8 |
| 20260503174504 | 56 | 157 | 6.1 | 13.9 | 0.00 | 0.55 | 0.00 | 85 | 1011.9 |
| 20260503173604 | 56 | 157 | 6.1 | 11.3 | 0.00 | 0.55 | 0.00 | 85 | 1011.9 |
| 20260503172725 | 56 | 157 | 5.2 | 14.8 | 0.00 | 0.55 | 0.00 | 85 | 1012.0 |
| 20260503171804 | 56 | 157 | 5.2 | 11.3 | 0.00 | 0.55 | 0.00 | 85 | 1011.9 |
| 20260503170904 | 56 | 157 | 5.2 | 13.0 | 0.00 | 0.55 | 0.00 | 85 | 1012.0 |
| 20260503150904 | 56 | 157 | 6.1 | 14.8 | 0.00 | 0.55 | 0.00 | 83 | 1012.2 |
| 20260503130904 | 59 | 157 | 7.0 | 14.8 | 0.00 | 0.55 | 0.55 | 78 | 1012.7 |
| 20260503080904 | 58 | 157 | 0.9 | 3.5 | 0.00 | 0.55 | 0.55 | 83 | 1011.3 |
| 20260503072704 | 59 | 157 | 1.7 | 5.2 | 0.00 | 0.55 | 0.55 | 86 | 1011.3 |
| 20260503071804 | 59 | 157 | 1.7 | 5.2 | 0.00 | 0.55 | 0.55 | 86 | 1011.2 |
| 20260503070904 | 59 | 157 | 0.9 | 5.2 | 0.00 | 0.55 | 0.55 | 87 | 1010.9 |
| 20260503054525 | 61 | 157 | 5.2 | 13.9 | 0.09 | 0.55 | 0.55 | 89 | 1010.6 |
| 20260503053625 | 62 | 157 | 4.3 | 12.2 | 0.09 | 0.55 | 0.55 | 89 | 1010.7 |
| 20260503052704 | 64 | 157 | 3.5 | 8.7 | 0.05 | 0.51 | 0.51 | 89 | 1010.3 |
| 20260503051804 | 64 | 157 | 6.1 | 10.4 | 0.03 | 0.49 | 0.49 | 87 | 1010.3 |